Location: Unspecified
(0.0000°N, 0.0000°E)
Time: 12:00:10
(UTC+00:00)

IBEX - Pass Details

Date: 26 May 2019
Orbit: 43050 x 333428 km, 30.2° (Epoch: 06 August)

Event Time Altitude Azimuth Distance (km) Brightness Sun altitude
Rises 20:24:20 0° 92° (E) 339,515 ? -34.0°
Reaches altitude 10° 21:05:11 10° 92° (E) 338,310 ? -43.1°
Maximum altitude 02:25:50 87° 179° (S) 331,844 ? -48.0°
Drops below altitude 10° 07:46:45 10° 266° (W) 334,805 ? 25.5°
Sets 08:27:41 0° 266° (W) 335,562 ? 34.8°
